TimeEDT,TemperatureF,Dew PointF,Humidity,Sea Level PressureIn,VisibilityMPH,Wind Direction,Wind SpeedMPH,Gust SpeedMPH,PrecipitationIn,Events,Conditions,WindDirDegrees,DateUTC
12:52 AM,37.0,35.1,93,30.28,10.0,Calm,Calm,-,N/A,,Clear,0,2013-05-06 04:52:00
1:52 AM,36.0,33.1,89,30.27,10.0,Calm,Calm,-,N/A,,Clear,0,2013-05-06 05:52:00
2:52 AM,34.0,32.0,92,30.26,10.0,Calm,Calm,-,N/A,,Clear,0,2013-05-06 06:52:00
3:52 AM,33.1,30.9,92,30.26,10.0,Calm,Calm,-,N/A,,Scattered Clouds,0,2013-05-06 07:52:00
4:03 AM,33.8,30.2,87,30.23,10.0,Calm,Calm,-,N/A,,Mostly Cloudy,0,2013-05-06 08:03:00
4:30 AM,33.8,32.0,93,30.23,1.5,Calm,Calm,-,N/A,,Overcast,0,2013-05-06 08:30:00
4:32 AM,33.8,32.0,93,30.23,0.8,Calm,Calm,-,N/A,,Mist,0,2013-05-06 08:32:00
4:52 AM,33.1,32.0,96,30.26,0.5,Calm,Calm,-,N/A,Fog,Fog,0,2013-05-06 08:52:00
5:20 AM,32.0,30.2,93,30.24,1.2,Calm,Calm,-,N/A,,Overcast,0,2013-05-06 09:20:00
5:24 AM,30.2,30.2,100,30.24,2.0,Calm,Calm,-,N/A,,Overcast,0,2013-05-06 09:24:00
5:28 AM,32.0,30.2,93,30.24,1.2,Calm,Calm,-,N/A,,Overcast,0,2013-05-06 09:28:00
5:31 AM,32.0,30.2,93,30.24,0.8,Calm,Calm,-,N/A,,Mist,0,2013-05-06 09:31:00
5:52 AM,32.0,30.9,96,30.27,0.2,Calm,Calm,-,N/A,Fog,Fog,0,2013-05-06 09:52:00
6:48 AM,33.8,32.0,93,30.25,1.2,Calm,Calm,-,N/A,,Mostly Cloudy,0,2013-05-06 10:48:00
6:50 AM,33.8,32.0,93,30.25,4.0,Calm,Calm,-,N/A,,Mostly Cloudy,0,2013-05-06 10:50:00
6:52 AM,33.1,33.1,100,30.28,7.0,Calm,Calm,-,N/A,,Mostly Cloudy,0,2013-05-06 10:52:00
7:26 AM,37.4,37.4,100,30.26,1.8,SSE,4.6,-,N/A,,Mostly Cloudy,160,2013-05-06 11:26:00
7:29 AM,37.4,37.4,100,30.26,0.8,SSE,3.5,-,N/A,,Overcast,160,2013-05-06 11:29:00
7:52 AM,41.0,39.9,96,30.29,0.8,Calm,Calm,-,N/A,,Mist,0,2013-05-06 11:52:00
7:54 AM,41.0,39.2,93,30.26,1.2,Calm,Calm,-,N/A,,Mostly Cloudy,0,2013-05-06 11:54:00
7:56 AM,42.8,39.2,87,30.26,3.0,Calm,Calm,-,N/A,,Mostly Cloudy,0,2013-05-06 11:56:00
8:07 AM,42.8,39.2,87,30.26,10.0,SW,5.8,-,N/A,,Scattered Clouds,230,2013-05-06 12:07:00
8:52 AM,48.9,39.9,71,30.29,10.0,SW,4.6,-,N/A,,Clear,220,2013-05-06 12:52:00
9:52 AM,53.1,39.9,61,30.30,10.0,Calm,Calm,-,N/A,,Clear,0,2013-05-06 13:52:00
10:52 AM,57.9,39.0,49,30.28,10.0,Variable,5.8,-,N/A,,Clear,0,2013-05-06 14:52:00
11:52 AM,63.0,37.9,40,30.26,10.0,Variable,3.5,-,N/A,,Clear,0,2013-05-06 15:52:00
12:52 PM,66.9,32.0,27,30.24,10.0,WSW,5.8,-,N/A,,Clear,250,2013-05-06 16:52:00
1:52 PM,69.1,26.1,20,30.23,10.0,Variable,3.5,-,N/A,,Clear,0,2013-05-06 17:52:00
2:52 PM,72.0,23.0,16,30.20,10.0,WSW,5.8,-,N/A,,Clear,250,2013-05-06 18:52:00
3:52 PM,72.0,19.0,13,30.18,10.0,SW,8.1,-,N/A,,Clear,220,2013-05-06 19:52:00
4:52 PM,72.0,19.9,14,30.17,10.0,Variable,6.9,-,N/A,,Clear,0,2013-05-06 20:52:00
6:52 PM,70.0,25.0,18,30.16,10.0,SSW,6.9,-,N/A,,Clear,200,2013-05-06 22:52:00
7:52 PM,63.0,34.0,34,30.17,10.0,ESE,4.6,-,N/A,,Clear,120,2013-05-06 23:52:00
8:52 PM,60.1,44.1,55,30.18,10.0,SSE,4.6,-,N/A,,Clear,150,2013-05-07 00:52:00
9:52 PM,55.9,46.0,69,30.20,10.0,Calm,Calm,-,N/A,,Clear,0,2013-05-07 01:52:00
10:52 PM,55.9,46.0,69,30.20,10.0,SSW,4.6,-,N/A,,Clear,200,2013-05-07 02:52:00
11:52 PM,55.0,46.0,72,30.19,10.0,SSW,3.5,-,N/A,,Clear,200,2013-05-07 03:52:00